QPF
0.04 0.05 0.06 0.06 0.05 0.05 0.05 0.04 0.03 0.03 0.03 0.03 0.03 0.04 0.04 0.05 0.04 0.03 0.04 0.02 0.02 0.04 0.04 0.04 0.05 0.06 0.05 0.05 0.04 0.03 0.03 0.04 0.04 0.05 0.05 0.04 0.04 0.04 0.05 0.07 0.06 0.05 0.05
0.06 0.05 0.05 0.06 0.04 0.04 0.04 0.04 0.03 0.04 0.03 0.02 0.03 0.04 0.05 0.06 0.06 0.04 0.03 0.02 0.02 0.02 0.03 0.04 0.04 0.05 0.04 0.04 0.05 0.05 0.04 0.04 0.04 0.03 0.03 0.04 0.05 0.05 0.05 0.06 0.06 0.05 0.05
0.08 0.07 0.07 0.07 0.05 0.04 0.04 0.04 0.04 0.04 0.03 0.03 0.03 0.04 0.04 0.05 0.03 0.02 0.03 0.03 0.01 0.01 0.02 0.04 0.04 0.04 0.04 0.04 0.05 0.05 0.04 0.04 0.03 0.03 0.04 0.04 0.04 0.04 0.03 0.04 0.05 0.06 0.06
0.11 0.10 0.09 0.09 0.08 0.06 0.04 0.04 0.04 0.05 0.06 0.06 0.06 0.05 0.03 0.04 0.04 0.03 0.03 0.04 0.03 0.03 0.02 0.03 0.04 0.04 0.04 0.05 0.05 0.04 0.04 0.04 0.04 0.04 0.03 0.02 0.02 0.02 0.02 0.02 0.04 0.04 0.05
0.12 0.13 0.14 0.14 0.11 0.07 0.04 0.03 0.04 0.05 0.04 0.05 0.04 0.04 0.04 0.04 0.04 0.04 0.04 0.05 0.05 0.03 0.02 0.02 0.02 0.02 0.03 0.04 0.06 0.05 0.06 0.08 0.08 0.06 0.05 0.04 0.03 0.03 0.02 0.02 0.02 0.04 0.06
0.07 0.07 0.09 0.07 0.05 0.05 0.05 0.05 0.05 0.04 0.04 0.06 0.05 0.06 0.05 0.05 0.04 0.06 0.06 0.06 0.05 0.04 0.02 0.02 0.03 0.02 0.02 0.03 0.04 0.04 0.06 0.09 0.10 0.09 0.08 0.07 0.05 0.04 0.03 0.02 0.03 0.04 0.07
0.03 0.05 0.03 0.05 0.05 0.05 0.05 0.04 0.04 0.04 0.03 0.04 0.05 0.05 0.05 0.05 0.06 0.08 0.07 0.08 0.08 0.07 0.05 0.04 0.04 0.03 0.02 0.02 0.03 0.03 0.04 0.06 0.08 0.10 0.11 0.11 0.09 0.07 0.05 0.03 0.03 0.03 0.05
0.02 0.02 0.03 0.02 0.04 0.04 0.04 0.03 0.04 0.04 0.04 0.04 0.05 0.05 0.04 0.05 0.06 0.07 0.06 0.07 0.10 0.08 0.07 0.06 0.05 0.04 0.03 0.03 0.02 0.02 0.03 0.03 0.04 0.06 0.07 0.07 0.07 0.07 0.06 0.04 0.03 0.04 0.03
0.02 0.02 0.03 0.02 0.02 0.02 0.03 0.03 0.03 0.05 0.07 0.07 0.05 0.05 0.05 0.04 0.04 0.06 0.05 0.04 0.05 0.05 0.05 0.05 0.05 0.05 0.04 0.04 0.04 0.03 0.03 0.03 0.03 0.04 0.05 0.06 0.07 0.08 0.08 0.06 0.05 0.04 0.04
0.01 0.02 0.02 0.02 0.03 0.02 0.03 0.03 0.02 0.04 0.05 0.05 0.05 0.04 0.04 0.04 0.04 0.04 0.04 0.03 0.04 0.04 0.03 0.03 0.03 0.03 0.02 0.02 0.03 0.03 0.03 0.03 0.03 0.03 0.04 0.05 0.05 0.04 0.05 0.07 0.08 0.06 0.05
0.01 0.01 0.01 0.03 0.03 0.02 0.03 0.04 0.03 0.03 0.04 0.05 0.05 0.05 0.05 0.04 0.03 0.04 0.05 0.05 0.04 0.03 0.02 0.01 0.01 0.02 0.02 0.02 0.03 0.03 0.02 0.02 0.02 0.02 0.03 0.04 0.04 0.03 0.04 0.05 0.05 0.06 0.07
0.04 0.03 0.03 0.03 0.03 0.04 0.03 0.03 0.03 0.03 0.04 0.06 0.05 0.04 0.05 0.04 0.03 0.04 0.05 0.05 0.05 0.04 0.03 0.02 0.02 0.02 0.02 0.02 0.02 0.02 0.01 0.01 0.01 0.01 0.01 0.02 0.03 0.03 0.04 0.05 0.06 0.06 0.07
0.04 0.03 0.03 0.03 0.03 0.03 0.03 0.04 0.04 0.04 0.04 0.06 0.07 0.06 0.05 0.04 0.03 0.04 0.04 0.04 0.04 0.04 0.04 0.03 0.02 0.02 0.01 0.02 0.02 0.02 0.01 0.01 0.01 0.01 0.01 0.01 0.02 0.03 0.03 0.03 0.04 0.05 0.06
0.03 0.03 0.04 0.03 0.02 0.02 0.03 0.04 0.05 0.05 0.05 0.06 0.06 0.07 0.06 0.04 0.04 0.04 0.04 0.06 0.05 0.05 0.05 0.03 0.02 0.01 0.02 0.02 0.02 0.02 0.03 0.02 0.01 0.01 0.02 0.01 0.01 0.02 0.02 0.01 0.02 0.02 0.03
0.04 0.06 0.08 0.09 0.08 0.09 0.08 0.07 0.06 0.07 0.08 0.08 0.08 0.09 0.08 0.06 0.05 0.05 0.05 0.06 0.06 0.05 0.06 0.05 0.04 0.03 0.02 0.02 0.02 0.01 0.03 0.03 0.01 0.01 0.01 0.01 0.02 0.01 0.01 0.01 0.01 0.02 0.02
0.02 0.03 0.03 0.05 0.09 0.12 0.15 0.13 0.09 0.06 0.05 0.05 0.05 0.06 0.07 0.07 0.07 0.06 0.06 0.06 0.05 0.05 0.05 0.04 0.04 0.02 0.03 0.01 0.01 0.01 0.02 0.02 0.02 0.01 0.01 0.01 0.01 0.01 0.01 0.01 0.01 0.01 0.01
0.03 0.03 0.03 0.02 0.03 0.03 0.03 0.05 0.04 0.03 0.02 0.02 0.02 0.03 0.04 0.06 0.08 0.07 0.08 0.07 0.06 0.08 0.07 0.05 0.04 0.03 0.04 0.02 0.02 0.02 0.02 0.02 0.02 0.02 0.01 0.01 0.01 0.02 0.02 0.01 0.01 0.01 0.01
0.02 0.02 0.02 0.03 0.02 0.02 0.02 0.02 0.03 0.02 0.02 0.02 0.01 0.02 0.03 0.05 0.08 0.10 0.10 0.09 0.08 0.09 0.09 0.08 0.05 0.04 0.03 0.03 0.04 0.03 0.02 0.02 0.02 0.01 0.00 0.00 0.01 0.01 0.02 0.02 0.01 0.01 0.01
0.04 0.03 0.03 0.02 0.02 0.02 0.02 0.02 0.02 0.02 0.02 0.01 0.01 0.02 0.03 0.04 0.06 0.07 0.07 0.08 0.10 0.11 0.09 0.08 0.06 0.05 0.03 0.03 0.03 0.03 0.03 0.03 0.02 0.01 0.01 0.00 0.00 0.00 0.01 0.01 0.01 0.00 0.00
0.04 0.03 0.02 0.02 0.02 0.02 0.02 0.02 0.02 0.02 0.02 0.02 0.02 0.02 0.03 0.04 0.05 0.06 0.05 0.06 0.07 0.07 0.08 0.07 0.05 0.04 0.04 0.04 0.04 0.04 0.04 0.04 0.03 0.01 0.01 0.01 0.00 0.00 0.00 0.01 0.01 0.00 0.01
0.03 0.03 0.03 0.02 0.02 0.02 0.01 0.01 0.02 0.02 0.03 0.03 0.02 0.02 0.02 0.03 0.03 0.03 0.03 0.04 0.05 0.06 0.06 0.07 0.06 0.05 0.05 0.05 0.05 0.04 0.05 0.06 0.06 0.04 0.02 0.02 0.02 0.01 0.01 0.01 0.01 0.01 0.01
0.03 0.04 0.03 0.02 0.02 0.01 0.01 0.01 0.01 0.02 0.02 0.02 0.02 0.02 0.02 0.01 0.02 0.02 0.02 0.03 0.04 0.05 0.05 0.07 0.09 0.09 0.08 0.06 0.06 0.06 0.06 0.06 0.07 0.07 0.06 0.03 0.02 0.02 0.02 0.01 0.01 0.01 0.01
0.04 0.04 0.03 0.03 0.02 0.01 0.01 0.01 0.01 0.01 0.01 0.01 0.02 0.02 0.02 0.01 0.02 0.02 0.02 0.03 0.03 0.04 0.05 0.06 0.06 0.08 0.10 0.12 0.12 0.11 0.09 0.07 0.05 0.07 0.10 0.09 0.06 0.04 0.02 0.02 0.02 0.02 0.02
0.04 0.05 0.04 0.03 0.02 0.02 0.01 0.01 0.01 0.01 0.02 0.02 0.01 0.02 0.03 0.03 0.03 0.04 0.04 0.05 0.04 0.03 0.04 0.04 0.04 0.04 0.06 0.09 0.12 0.14 0.15 0.13 0.09 0.07 0.07 0.09 0.10 0.08 0.06 0.05 0.05 0.05 0.05
0.04 0.05 0.04 0.03 0.02 0.01 0.01 0.01 0.01 0.01 0.02 0.02 0.02 0.02 0.03 0.03 0.04 0.04 0.04 0.03 0.03 0.03 0.04 0.04 0.04 0.04 0.05 0.05 0.05 0.06 0.10 0.12 0.11 0.09 0.09 0.08 0.07 0.07 0.08 0.07 0.07 0.07 0.05
0.03 0.03 0.02 0.02 0.02 0.02 0.02 0.01 0.02 0.03 0.02 0.03 0.03 0.03 0.03 0.03 0.03 0.04 0.03 0.03 0.04 0.04 0.04 0.04 0.06 0.06 0.05 0.04 0.03 0.04 0.07 0.10 0.10 0.09 0.09 0.08 0.07 0.06 0.06 0.06 0.07 0.07 0.05
MSLP
1013.42 1013.32 1013.15 1012.94 1012.73 1012.53 1012.38 1012.26 1012.17 1012.06 1011.90 1011.67 1011.36 1011.00 1010.62 1010.27 1010.01 1009.86 1009.84 1009.90 1010.01 1010.10 1010.14 1010.09 1009.94 1009.73 1009.51 1009.32 1009.22 1009.24 1009.40 1009.66 1010.00 1010.38 1010.77 1011.15 1011.52 1011.88 1012.26 1012.68 1013.14 1013.65 1014.17
1013.07 1012.95 1012.78 1012.58 1012.37 1012.19 1012.06 1011.97 1011.90 1011.81 1011.66 1011.44 1011.13 1010.76 1010.36 1010.00 1009.72 1009.56 1009.52 1009.59 1009.71 1009.83 1009.89 1009.87 1009.74 1009.53 1009.28 1009.05 1008.90 1008.85 1008.92 1009.11 1009.38 1009.71 1010.06 1010.41 1010.75 1011.09 1011.45 1011.85 1012.29 1012.79 1013.33
1012.81 1012.67 1012.49 1012.28 1012.07 1011.90 1011.78 1011.70 1011.64 1011.57 1011.44 1011.23 1010.93 1010.57 1010.18 1009.81 1009.53 1009.37 1009.34 1009.42 1009.57 1009.73 1009.84 1009.86 1009.76 1009.57 1009.32 1009.05 1008.83 1008.70 1008.67 1008.75 1008.92 1009.16 1009.42 1009.70 1009.98 1010.27 1010.59 1010.94 1011.36 1011.84 1012.36
1012.66 1012.50 1012.29 1012.07 1011.85 1011.67 1011.55 1011.47 1011.41 1011.35 1011.24 1011.05 1010.78 1010.44 1010.08 1009.74 1009.48 1009.34 1009.33 1009.45 1009.64 1009.85 1010.02 1010.09 1010.05 1009.89 1009.64 1009.35 1009.06 1008.83 1008.69 1008.64 1008.68 1008.78 1008.93 1009.10 1009.29 1009.49 1009.74 1010.03 1010.40 1010.83 1011.33
1012.63 1012.45 1012.23 1011.98 1011.75 1011.55 1011.41 1011.32 1011.25 1011.19 1011.09 1010.93 1010.70 1010.41 1010.10 1009.81 1009.60 1009.50 1009.54 1009.69 1009.93 1010.20 1010.43 1010.57 1010.58 1010.46 1010.23 1009.92 1009.58 1009.26 1008.99 1008.79 1008.68 1008.63 1008.63 1008.66 1008.73 1008.83 1008.98 1009.19 1009.48 1009.85 1010.30
1012.73 1012.54 1012.31 1012.05 1011.80 1011.59 1011.42 1011.30 1011.22 1011.16 1011.07 1010.94 1010.75 1010.52 1010.27 1010.05 1009.90 1009.86 1009.94 1010.14 1010.42 1010.73 1011.02 1011.22 1011.29 1011.22 1011.01 1010.69 1010.31 1009.91 1009.54 1009.20 1008.93 1008.72 1008.56 1008.45 1008.38 1008.36 1008.40 1008.50 1008.69 1008.98 1009.36
1012.97 1012.79 1012.56 1012.31 1012.06 1011.83 1011.64 1011.49 1011.39 1011.31 1011.23 1011.13 1010.99 1010.82 1010.64 1010.48 1010.39 1010.40 1010.52 1010.74 1011.05 1011.39 1011.71 1011.95 1012.07 1012.04 1011.86 1011.56 1011.17 1010.72 1010.26 1009.82 1009.42 1009.06 1008.76 1008.50 1008.30 1008.14 1008.06 1008.04 1008.12 1008.30 1008.58
1013.34 1013.20 1013.00 1012.77 1012.53 1012.30 1012.10 1011.94 1011.81 1011.72 1011.64 1011.55 1011.45 1011.33 1011.21 1011.11 1011.07 1011.10 1011.23 1011.45 1011.74 1012.07 1012.39 1012.65 1012.80 1012.81 1012.68 1012.41 1012.03 1011.58 1011.08 1010.57 1010.07 1009.61 1009.19 1008.81 1008.48 1008.21 1008.00 1007.87 1007.83 1007.88 1008.04
1013.83 1013.75 1013.61 1013.43 1013.22 1013.01 1012.81 1012.64 1012.50 1012.39 1012.31 1012.24 1012.16 1012.08 1011.99 1011.92 1011.89 1011.91 1012.01 1012.19 1012.42 1012.70 1012.98 1013.22 1013.38 1013.42 1013.34 1013.13 1012.80 1012.38 1011.89 1011.37 1010.83 1010.31 1009.81 1009.34 1008.92 1008.55 1008.23 1007.99 1007.82 1007.75 1007.77
1014.40 1014.40 1014.34 1014.23 1014.07 1013.90 1013.72 1013.55 1013.41 1013.30 1013.21 1013.14 1013.07 1013.00 1012.93 1012.86 1012.81 1012.79 1012.82 1012.90 1013.04 1013.23 1013.43 1013.62 1013.77 1013.84 1013.80 1013.66 1013.40 1013.05 1012.62 1012.13 1011.60 1011.06 1010.53 1010.02 1009.54 1009.10 1008.70 1008.35 1008.07 1007.87 1007.75
1015.00 1015.08 1015.11 1015.08 1014.99 1014.87 1014.73 1014.58 1014.45 1014.33 1014.24 1014.17 1014.11 1014.04 1013.96 1013.87 1013.77 1013.68 1013.61 1013.57 1013.59 1013.65 1013.75 1013.87 1013.98 1014.05 1014.06 1013.99 1013.82 1013.55 1013.20 1012.78 1012.30 1011.78 1011.26 1010.74 1010.23 1009.75 1009.29 1008.87 1008.49 1008.17 1007.91
1015.57 1015.73 1015.84 1015.89 1015.88 1015.82 1015.72 1015.61 1015.49 1015.39 1015.30 1015.23 1015.16 1015.09 1014.99 1014.87 1014.71 1014.53 1014.35 1014.19 1014.07 1013.99 1013.97 1014.00 1014.06 1014.13 1014.17 1014.15 1014.06 1013.88 1013.62 1013.27 1012.85 1012.39 1011.90 1011.39 1010.89 1010.39 1009.91 1009.44 1008.98 1008.56 1008.17
1016.05 1016.28 1016.46 1016.58 1016.64 1016.65 1016.60 1016.53 1016.44 1016.35 1016.28 1016.21 1016.14 1016.06 1015.95 1015.79 1015.58 1015.33 1015.05 1014.77 1014.52 1014.32 1014.18 1014.12 1014.11 1014.15 1014.19 1014.21 1014.18 1014.07 1013.87 1013.59 1013.23 1012.81 1012.36 1011.88 1011.40 1010.92 1010.43 1009.94 1009.44 1008.94 1008.45
1016.42 1016.70 1016.93 1017.12 1017.24 1017.30 1017.31 1017.27 1017.21 1017.15 1017.09 1017.04 1016.98 1016.90 1016.78 1016.60 1016.36 1016.05 1015.70 1015.33 1014.98 1014.67 1014.44 1014.29 1014.21 1014.21 1014.23 1014.25 1014.23 1014.15 1013.98 1013.73 1013.41 1013.02 1012.60 1012.15 1011.70 1011.25 1010.78 1010.30 1009.80 1009.26 1008.69
1016.68 1017.00 1017.27 1017.50 1017.67 1017.78 1017.83 1017.83 1017.81 1017.77 1017.73 1017.69 1017.65 1017.58 1017.47 1017.29 1017.04 1016.71 1016.32 1015.91 1015.49 1015.11 1014.80 1014.57 1014.43 1014.36 1014.33 1014.32 1014.27 1014.17 1013.99 1013.73 1013.40 1013.02 1012.61 1012.19 1011.77 1011.35 1010.93 1010.49 1010.00 1009.46 1008.87
1016.89 1017.22 1017.53 1017.79 1018.00 1018.14 1018.22 1018.26 1018.26 1018.24 1018.22 1018.20 1018.17 1018.12 1018.02 1017.86 1017.63 1017.31 1016.93 1016.50 1016.06 1015.64 1015.28 1014.99 1014.78 1014.64 1014.54 1014.45 1014.34 1014.17 1013.93 1013.62 1013.25 1012.84 1012.42 1012.01 1011.62 1011.24 1010.88 1010.49 1010.06 1009.56 1008.98
1017.08 1017.44 1017.77 1018.06 1018.29 1018.46 1018.57 1018.63 1018.64 1018.64 1018.63 1018.61 1018.59 1018.56 1018.48 1018.35 1018.15 1017.86 1017.51 1017.10 1016.66 1016.24 1015.85 1015.52 1015.25 1015.03 1014.85 1014.66 1014.45 1014.18 1013.85 1013.45 1013.01 1012.55 1012.10 1011.68 1011.31 1010.97 1010.67 1010.36 1010.01 1009.57 1009.03
1017.32 1017.70 1018.06 1018.37 1018.62 1018.81 1018.94 1019.01 1019.03 1019.03 1019.01 1019.00 1018.98 1018.95 1018.90 1018.79 1018.62 1018.37 1018.06 1017.68 1017.27 1016.86 1016.46 1016.09 1015.77 1015.48 1015.20 1014.91 1014.58 1014.21 1013.77 1013.27 1012.75 1012.22 1011.72 1011.28 1010.92 1010.62 1010.37 1010.14 1009.87 1009.51 1009.04
1017.63 1018.04 1018.42 1018.75 1019.03 1019.24 1019.37 1019.44 1019.47 1019.45 1019.43 1019.40 1019.37 1019.34 1019.28 1019.19 1019.05 1018.83 1018.56 1018.22 1017.84 1017.43 1017.03 1016.64 1016.26 1015.90 1015.54 1015.15 1014.72 1014.24 1013.70 1013.11 1012.50 1011.91 1011.36 1010.90 1010.53 1010.25 1010.05 1009.87 1009.68 1009.41 1009.02
1017.99 1018.43 1018.84 1019.20 1019.49 1019.71 1019.85 1019.92 1019.94 1019.91 1019.87 1019.82 1019.76 1019.71 1019.65 1019.56 1019.43 1019.23 1018.98 1018.66 1018.30 1017.91 1017.50 1017.08 1016.67 1016.25 1015.81 1015.35 1014.84 1014.27 1013.65 1012.99 1012.31 1011.66 1011.07 1010.58 1010.19 1009.91 1009.73 1009.59 1009.45 1009.25 1008.94
1018.36 1018.83 1019.26 1019.64 1019.95 1020.18 1020.33 1020.40 1020.40 1020.36 1020.29 1020.22 1020.14 1020.07 1019.98 1019.88 1019.74 1019.55 1019.30 1019.00 1018.64 1018.24 1017.82 1017.38 1016.93 1016.46 1015.98 1015.46 1014.89 1014.27 1013.61 1012.90 1012.19 1011.51 1010.88 1010.35 1009.93 1009.63 1009.43 1009.30 1009.18 1009.03 1008.77
1018.68 1019.16 1019.61 1020.00 1020.33 1020.57 1020.72 1020.79 1020.79 1020.74 1020.66 1020.56 1020.46 1020.36 1020.26 1020.13 1019.98 1019.78 1019.52 1019.20 1018.83 1018.42 1017.97 1017.50 1017.02 1016.52 1016.00 1015.45 1014.87 1014.24 1013.56 1012.85 1012.13 1011.43 1010.79 1010.22 1009.76 1009.41 1009.17 1009.00 1008.86 1008.71 1008.49
1018.88 1019.37 1019.83 1020.23 1020.56 1020.81 1020.97 1021.05 1021.05 1021.00 1020.90 1020.80 1020.68 1020.56 1020.44 1020.30 1020.12 1019.90 1019.62 1019.28 1018.88 1018.44 1017.96 1017.45 1016.94 1016.41 1015.88 1015.33 1014.75 1014.14 1013.49 1012.81 1012.11 1011.42 1010.76 1010.16 1009.65 1009.23 1008.91 1008.68 1008.49 1008.31 1008.08
1018.94 1019.43 1019.89 1020.29 1020.63 1020.89 1021.06 1021.14 1021.15 1021.10 1021.01 1020.90 1020.78 1020.65 1020.52 1020.36 1020.16 1019.92 1019.61 1019.24 1018.80 1018.32 1017.80 1017.26 1016.71 1016.17 1015.63 1015.09 1014.54 1013.97 1013.37 1012.75 1012.09 1011.42 1010.76 1010.14 1009.57 1009.08 1008.67 1008.34 1008.07 1007.83 1007.57
1018.87 1019.35 1019.81 1020.22 1020.57 1020.83 1021.01 1021.10 1021.12 1021.07 1020.99 1020.88 1020.76 1020.63 1020.49 1020.32 1020.10 1019.83 1019.50 1019.09 1018.62 1018.09 1017.52 1016.94 1016.36 1015.80 1015.26 1014.74 1014.23 1013.72 1013.19 1012.63 1012.03 1011.41 1010.77 1010.13 1009.51 1008.94 1008.44 1008.00 1007.63 1007.31 1007.01
1018.71 1019.20 1019.66 1020.08 1020.44 1020.71 1020.89 1020.99 1021.01 1020.97 1020.89 1020.78 1020.65 1020.52 1020.36 1020.18 1019.95 1019.66 1019.29 1018.85 1018.34 1017.77 1017.16 1016.54 1015.93 1015.35 1014.82 1014.32 1013.85 1013.40 1012.94 1012.45 1011.92 1011.35 1010.73 1010.09 1009.44 1008.81 1008.22 1007.69 1007.22 1006.82 1006.47
Thickness
5771 5770 5769 5768 5769 5768 5768 5767 5767 5765 5765 5764 5765 5764 5764 5763 5763 5763 5760 5756 5754 5752 5751 5750 5749 5748 5746 5745 5744 5743 5741 5740 5739 5738 5737 5736 5735 5734 5733 5732 5731 5730 5729
5771 5771 5770 5769 5770 5770 5769 5768 5768 5766 5767 5766 5765 5765 5764 5764 5762 5761 5761 5758 5755 5753 5751 5750 5749 5748 5747 5746 5745 5744 5742 5741 5740 5738 5737 5736 5735 5734 5733 5732 5732 5731 5729
5771 5771 5771 5771 5771 5771 5769 5768 5768 5768 5768 5767 5766 5765 5765 5764 5763 5762 5761 5761 5759 5755 5752 5750 5749 5748 5747 5746 5745 5744 5743 5742 5740 5739 5737 5736 5734 5734 5733 5733 5732 5731 5730
5771 5771 5772 5772 5771 5771 5770 5769 5769 5768 5768 5767 5766 5766 5766 5764 5763 5762 5762 5761 5760 5759 5754 5751 5749 5748 5747 5746 5745 5744 5743 5742 5741 5739 5737 5736 5735 5734 5733 5732 5732 5731 5730
5771 5772 5772 5771 5771 5771 5771 5771 5770 5768 5766 5765 5766 5766 5766 5765 5764 5764 5763 5761 5760 5758 5757 5752 5750 5748 5746 5745 5744 5744 5743 5742 5740 5739 5737 5736 5735 5734 5733 5732 5732 5732 5731
5772 5772 5772 5771 5771 5771 5769 5768 5766 5766 5766 5765 5767 5766 5766 5766 5765 5764 5763 5762 5760 5759 5758 5755 5752 5749 5746 5745 5743 5742 5741 5740 5739 5738 5737 5736 5735 5734 5733 5732 5732 5732 5731
5771 5771 5772 5770 5770 5769 5767 5767 5766 5764 5764 5765 5763 5762 5764 5766 5765 5763 5762 5761 5760 5758 5756 5754 5753 5751 5748 5744 5742 5741 5740 5739 5737 5736 5735 5735 5734 5733 5732 5732 5731 5731 5730
5770 5771 5769 5770 5769 5767 5766 5765 5763 5764 5764 5763 5761 5758 5756 5758 5760 5763 5761 5759 5758 5757 5755 5754 5752 5748 5748 5746 5743 5740 5738 5737 5736 5735 5734 5733 5732 5732 5731 5730 5730 5730 5729
5769 5768 5768 5768 5767 5768 5766 5763 5762 5760 5759 5760 5761 5757 5752 5750 5755 5758 5758 5757 5755 5754 5754 5753 5751 5748 5747 5744 5742 5739 5737 5735 5734 5733 5732 5731 5730 5729 5729 5728 5728 5728 5728
5768 5767 5766 5765 5765 5766 5763 5763 5763 5761 5758 5757 5758 5757 5756 5755 5749 5749 5754 5756 5755 5752 5752 5752 5751 5748 5745 5743 5740 5737 5734 5733 5731 5730 5729 5728 5727 5727 5726 5726 5725 5725 5725
5767 5766 5765 5764 5763 5764 5762 5760 5759 5758 5758 5756 5754 5754 5752 5751 5750 5746 5744 5746 5750 5751 5750 5748 5748 5746 5744 5741 5739 5736 5732 5730 5729 5727 5727 5726 5725 5724 5723 5723 5723 5723 5722
5767 5765 5764 5762 5761 5761 5759 5757 5756 5755 5754 5752 5752 5751 5749 5748 5746 5746 5742 5741 5743 5747 5747 5747 5745 5744 5741 5739 5736 5732 5729 5727 5726 5724 5723 5722 5722 5721 5720 5720 5720 5720 5719
5766 5762 5762 5759 5759 5757 5756 5754 5753 5752 5751 5748 5747 5748 5747 5747 5748 5745 5742 5740 5740 5743 5743 5743 5743 5741 5739 5737 5733 5729 5726 5724 5722 5721 5720 5719 5719 5718 5717 5717 5716 5716 5715
5765 5762 5759 5757 5755 5754 5753 5751 5751 5749 5748 5746 5746 5744 5744 5745 5745 5743 5740 5736 5734 5736 5737 5737 5740 5738 5736 5734 5730 5726 5724 5721 5719 5718 5717 5716 5716 5715 5714 5713 5712 5712 5711
5763 5759 5756 5754 5752 5751 5749 5747 5747 5745 5744 5744 5744 5742 5741 5742 5742 5741 5739 5736 5729 5726 5729 5733 5733 5734 5732 5729 5725 5723 5722 5718 5716 5714 5713 5712 5712 5711 5710 5709 5709 5708 5707
5760 5756 5754 5751 5749 5747 5746 5744 5743 5741 5740 5739 5739 5737 5736 5738 5738 5737 5736 5734 5731 5727 5725 5731 5730 5731 5727 5726 5722 5720 5719 5716 5713 5712 5710 5709 5708 5708 5707 5706 5705 5704 5704
5756 5753 5750 5747 5745 5743 5742 5740 5739 5737 5736 5735 5734 5733 5731 5731 5732 5732 5731 5730 5728 5725 5721 5725 5728 5726 5721 5719 5717 5716 5716 5714 5713 5710 5707 5706 5705 5704 5703 5703 5702 5700 5699
5754 5750 5747 5744 5741 5740 5738 5735 5734 5733 5731 5730 5729 5728 5727 5728 5725 5725 5724 5724 5723 5722 5718 5716 5719 5719 5716 5714 5713 5711 5713 5713 5712 5708 5705 5703 5701 5700 5700 5699 5697 5696 5695
5750 5747 5743 5740 5738 5735 5733 5731 5729 5728 5726 5725 5724 5723 5722 5721 5719 5720 5718 5719 5719 5719 5716 5714 5713 5714 5712 5711 5708 5708 5709 5707 5708 5706 5702 5700 5698 5697 5696 5694 5693 5692 5691
5746 5743 5740 5737 5734 5731 5729 5726 5725 5723 5722 5721 5720 5719 5718 5716 5714 5713 5713 5712 5712 5711 5710 5709 5709 5708 5706 5705 5702 5702 5702 5703 5702 5703 5701 5699 5696 5693 5692 5690 5689 5687 5686
5744 5740 5737 5733 5730 5728 5725 5721 5719 5719 5717 5715 5714 5713 5713 5710 5708 5706 5708 5706 5705 5704 5705 5704 5703 5702 5700 5697 5696 5698 5697 5697 5697 5697 5696 5696 5694 5692 5690 5687 5684 5682 5681
5739 5735 5732 5728 5725 5724 5718 5714 5711 5712 5711 5709 5708 5707 5707 5705 5702 5699 5698 5697 5696 5696 5696 5695 5695 5694 5691 5691 5691 5691 5690 5689 5689 5692 5689 5689 5690 5689 5687 5685 5682 5678 5675
5734 5730 5727 5724 5720 5716 5711 5707 5704 5705 5705 5703 5701 5700 5702 5702 5697 5696 5693 5691 5690 5688 5687 5687 5688 5687 5687 5686 5684 5684 5682 5682 5682 5686 5683 5682 5683 5682 5682 5681 5676 5673 5670
5730 5726 5723 5720 5716 5711 5705 5701 5699 5699 5699 5698 5696 5695 5693 5692 5691 5687 5687 5687 5686 5685 5683 5682 5683 5682 5682 5680 5678 5677 5677 5676 5677 5679 5678 5675 5677 5676 5676 5674 5669 5667 5664
5725 5722 5718 5715 5711 5706 5701 5697 5692 5695 5694 5693 5691 5690 5687 5685 5680 5677 5679 5679 5679 5678 5677 5675 5674 5674 5673 5672 5671 5671 5671 5670 5671 5673 5672 5670 5671 5669 5668 5667 5664 5660 5658
5720 5717 5714 5710 5707 5703 5696 5691 5687 5691 5689 5688 5687 5685 5681 5677 5673 5670 5671 5671 5670 5671 5671 5671 5669 5668 5668 5667 5665 5664 5666 5665 5666 5666 5666 5663 5664 5662 5659 5660 5658 5655 5652